Location: Seasalter
(51.3333°N, 1.0167°E)
Time: 22:57:17
(UTC+00:00)

Cosmos 1484 Rocket - Visible Passes

Search period start: 13 April 2024 00:00
Search period end: 23 April 2024 00:00
Orbit: 482 x 527 km, 97.6° (Epoch: 13 April)

Date Brightness Start Highest point End Pass type
(mag) Time Alt. Az. Time Alt. Az. Time Alt. Az.
13 Apr 5.5 03:26:29 10° NE 03:28:45 16° E 03:31:01 10° SE visible
14 Apr 6.0 03:10:01 10° E 03:10:26 10° E 03:10:53 10° E visible
16 Apr 4.0 04:05:05 10° NNE 04:08:31 39° E 04:11:53 10° S visible
17 Apr 4.9 03:47:12 10° NE 03:50:16 25° E 03:53:17 10° SSE visible
18 Apr 5.4 03:29:34 10° NE 03:31:58 17° E 03:34:20 10° SE visible
19 Apr 5.8 03:12:38 10° ENE 03:13:36 11° E 03:14:33 10° ESE visible
21 Apr 3.9 04:08:03 10° NNE 04:11:30 42° E 04:14:55 10° S visible
22 Apr 4.8 03:50:06 10° NE 03:53:12 27° E 03:56:17 10° SSE visible
